FW9405 Weather Reports


time (UTC)temp
F
wind
direction
speed
knots
gust
knots
rain 1hr
in
rain 24hr
in
rain mn
in
humidity
%
barometer
mb
20260505224132 0 148 2.6 6.1 0.00 0.00 0.00 999.3
20260505223629 0 139 1.7 5.2 0.00 0.00 0.00 999.2
20260505223125 0 342 1.7 3.5 0.00 0.00 0.00 999.1
20260505222621 0 121 3.5 4.3 0.00 0.00 0.00 999.1
20260505222117 0 114 6.1 7.0 0.00 0.00 0.00 999.4
20260505221614 0 135 1.7 8.7 0.00 0.00 0.00 999.5
20260505221111 0 254 1.7 4.3 0.00 0.00 0.00 999.6
20260505220609 0 68 1.7 3.5 0.00 0.00 0.00 999.4
20260505220106 0 142 3.5 8.7 0.00 0.00 0.00 999.5
20260505215604 0 332 0.0 3.5 0.00 0.00 0.00 999.6
20260505215101 0 114 2.6 2.6 0.00 0.00 0.00 999.8
20260505214600 0 186 0.0 6.1 0.00 0.00 0.00 999.7
20260505214056 0 45 0.9 4.3 0.00 0.00 0.00 999.6
20260505213554 0 115 4.3 7.8 0.00 0.00 0.00 999.8
20260505213050 0 98 2.6 6.1 0.00 0.00 0.00 999.6
20260505212546 0 118 3.5 6.1 0.00 0.00 0.00 999.7
20260505212044 0 239 3.5 4.3 0.00 0.00 0.00 999.8
20260505211541 0 166 3.5 5.2 0.00 0.00 0.00 999.7
20260505211037 0 142 2.6 4.3 0.00 0.00 0.00 999.8
20260505210534 0 140 3.5 6.1 0.00 0.00 0.00 999.8
20260505210031 0 142 4.3 5.2 0.00 0.00 0.00 1000.0
20260505205529 0 127 3.5 5.2 0.00 0.00 0.00 1000.3
20260505205026 0 113 1.7 4.3 0.00 0.00 0.00 1000.1
20260505204518 0 115 6.1 6.1 0.00 0.00 0.00 1000.0
20260505204015 0 110 4.3 4.3 0.00 0.00 0.00 1000.0
20260505203511 0 125 4.3 5.2 0.00 0.00 0.00 1000.1
20260505203008 0 120 4.3 6.1 0.00 0.00 0.00 1000.0
20260505202504 0 95 5.2 6.1 0.00 0.00 0.00 1000.0
20260505202000 0 73 0.9 4.3 0.00 0.00 0.00 1000.2
20260505201458 0 90 1.7 3.5 0.00 0.00 0.00 1000.3
20260505200955 0 336 1.7 3.5 0.00 0.00 0.00 1000.1
20260505200453 0 343 2.6 2.6 0.00 0.00 0.00 1000.2
20260505195948 0 294 2.6 4.3 0.00 0.00 0.00 1000.1
20260505195446 0 82 1.7 2.6 0.00 0.00 0.00 1000.3
20260505194943 0 147 1.7 4.3 0.00 0.00 0.00 1000.2
20260505194440 0 71 2.6 2.6 0.00 0.00 0.00 1000.1
20260505193940 0 79 1.7 4.3 0.00 0.00 0.00 1000.1
20260505193438 0 99 3.5 5.2 0.00 0.00 0.00 1000.2
20260505192936 0 124 3.5 6.1 0.00 0.00 0.00 1000.3
20260505192434 0 161 4.3 4.3 0.00 0.00 0.00 1000.4
20260505191931 0 114 2.6 6.1 0.00 0.00 0.00 1000.4
20260505191430 0 96 3.5 5.2 0.00 0.00 0.00 1000.3
20260505190926 0 73 2.6 5.2 0.00 0.00 0.00 1000.2
20260505190421 0 114 0.9 3.5 0.00 0.00 0.00 1000.3
20260505185917 0 125 1.7 5.2 0.00 0.00 0.00 1000.3
20260505185414 0 150 2.6 5.2 0.00 0.00 0.00 1000.0
20260505184910 0 174 0.9 6.1 0.00 0.00 0.00 1000.2
20260505184407 0 126 4.3 4.3 0.00 0.00 0.00 1000.3
20260505183904 0 122 3.5 4.3 0.00 0.00 0.00 1000.3
20260505183401 0 138 4.3 5.2 0.00 0.00 0.00 1000.1
20260505182858 0 165 1.7 2.6 0.00 0.00 0.00 1000.0
20260505182355 0 67 2.6 3.5 0.00 0.00 0.00 1000.1
20260505181851 0 335 0.0 2.6 0.00 0.00 0.00 1000.1
20260505181348 0 83 0.9 2.6 0.00 0.00 0.00 1000.2
20260505180845 0 180 0.0 3.5 0.00 0.00 0.00 1000.2
20260505180341 0 0 0.0 2.6 0.00 0.00 0.00 1000.2
20260505175838 0 346 0.9 2.6 0.00 0.00 0.00 1000.0
20260505175334 0 334 0.0 2.6 0.00 0.00 0.00 999.9
20260505174831 0 45 1.7 4.3 0.00 0.00 0.00 1000.1
20260505174329 0 105 1.7 5.2 0.00 0.00 0.00 999.9
20260505173824 0 74 1.7 4.3 0.00 0.00 0.00 999.7
20260505173321 0 66 3.5 4.3 0.00 0.00 0.00 999.9
20260505172818 0 297 0.0 1.7 0.00 0.00 0.00 999.9
20260505172315 0 29 0.0 2.6 0.00 0.00 0.00 999.7
20260505171810 0 109 0.9 3.5 0.00 0.00 0.00 999.8
20260505171307 0 123 0.9 4.3 0.00 0.00 0.00 1000.1
20260505170803 0 106 2.6 4.3 0.00 0.00 0.00 1000.0
20260505170300 0 143 1.7 4.3 0.00 0.00 0.00 999.8
20260505165755 0 105 4.3 6.1 0.00 0.00 0.00 999.5
20260505165252 0 103 4.3 4.3 0.00 0.00 0.00 999.8
20260505164747 0 120 0.9 5.2 0.00 0.00 0.00 999.9
20260505164245 0 162 3.5 4.3 0.00 0.00 0.00 999.9
20260505163743 0 121 1.7 3.5 0.00 0.00 0.00 999.9
20260505163241 0 41 1.7 3.5 0.00 0.00 0.00 1000.0
20260505162739 0 141 2.6 6.1 0.00 0.00 0.00 999.8
20260505162235 0 120 3.5 4.3 0.00 0.00 0.00 999.8
20260505161732 0 80 2.6 4.3 0.00 0.00 0.00 999.9
20260505161230 0 128 2.6 5.2 0.00 0.00 0.00 1000.0
20260505160727 0 152 2.6 2.6 0.00 0.00 0.00 999.8
20260505160225 0 119 2.6 4.3 0.00 0.00 0.00 999.9
20260505153203 0 98 4.3 5.2 0.00 0.00 0.00 999.9
20260505152700 0 135 5.2 5.2 0.00 0.00 0.00 999.8
20260505152156 0 123 4.3 5.2 0.00 0.00 0.00 999.8
20260505151651 0 132 1.7 2.6 0.00 0.00 0.00 999.8
20260505151149 0 106 3.5 4.3 0.00 0.00 0.00 999.8
20260505150645 0 124 2.6 4.3 0.00 0.00 0.00 999.9
20260505150142 0 127 1.7 3.5 0.00 0.00 0.00 999.7
20260505140611 0 135 2.6 2.6 0.00 0.00 0.00 999.6
20260505140108 0 126 2.6 3.5 0.00 0.00 0.00 999.3
20260505125024 0 203 0.0 1.7 0.00 0.00 0.00 998.8
20260505124521 0 277 0.0 2.6 0.00 0.00 0.00 998.8
20260505124017 0 251 0.0 1.7 0.00 0.00 0.00 998.8
20260505123514 0 240 1.7 1.7 0.00 0.00 0.00 998.7
20260505123010 0 229 0.9 1.7 0.00 0.00 0.00 998.7
20260505122507 0 166 0.0 0.9 0.00 0.00 0.00 998.7
20260505122004 0 180 0.0 1.7 0.00 0.00 0.00 998.7
20260505121501 0 198 0.9 4.3 0.00 0.00 0.00 998.7
20260505120957 0 258 2.6 4.3 0.00 0.00 0.00 998.6
20260505120453 0 306 2.6 5.2 0.00 0.00 0.00 998.5
20260505115952 0 209 2.6 5.2 0.00 0.00 0.00 998.7
20260505115449 0 264 3.5 3.5 0.00 0.00 0.00 998.8
20260505114947 0 233 2.6 4.3 0.00 0.00 0.00 998.7
20260505114443 0 247 3.5 4.3 0.00 0.00 0.00 998.8
20260505113940 0 252 2.6 6.1 0.00 0.00 0.00 998.6
20260505113436 0 307 3.5 5.2 0.00 0.00 0.00 998.6
20260505112932 0 315 3.5 4.3 0.00 0.00 0.00 998.6
20260505112430 0 255 2.6 4.3 0.00 0.00 0.00 998.8
20260505111926 0 237 2.6 5.2 0.00 0.00 0.00 998.6
20260505111420 0 266 4.3 7.8 0.00 0.00 0.00 998.7
20260505110917 0 280 5.2 7.0 0.00 0.00 0.00 998.6
20260505110414 0 263 5.2 6.1 0.00 0.00 0.00 998.6
20260505101845 0 258 1.7 2.6 0.00 0.00 0.00 998.6
20260505101339 0 243 3.5 3.5 0.00 0.00 0.00 998.4
20260505100836 0 328 1.7 3.5 0.00 0.00 0.00 998.3
20260505100333 0 319 1.7 3.5 0.00 0.00 0.00 998.3
20260505095828 0 270 0.9 2.6 0.00 0.00 0.00 998.2
20260505095326 0 264 0.0 2.6 0.00 0.00 0.00 998.4
20260505094822 0 75 0.0 0.9 0.00 0.00 0.00 998.2
20260505094319 0 246 2.6 2.6 0.00 0.00 0.00 998.4
20260505093814 0 246 0.0 0.9 0.00 0.00 0.00 998.2
20260505093312 0 246 0.0 0.9 0.00 0.00 0.00 998.3
20260505092808 0 234 0.0 1.7 0.00 0.00 0.00 998.3
20260505092308 0 254 0.0 1.7 0.00 0.00 0.00 998.2
20260505091804 0 209 1.7 2.6 0.00 0.00 0.00 998.3
20260505091302 0 270 0.0 2.6 0.00 0.00 0.00 998.2
20260505090800 0 241 1.7 2.6 0.00 0.00 0.00 998.4
20260505090258 0 221 1.7 1.7 0.00 0.00 0.00 998.0
20260505085755 0 173 0.0 0.0 0.00 0.00 0.00 998.2
20260505085253 0 147 0.0 1.7 0.00 0.00 0.00 998.2
20260505084750 0 160 0.0 1.7 0.00 0.00 0.00 998.1
20260505084249 0 140 0.9 1.7 0.00 0.00 0.00 998.1
20260505083746 0 14 0.0 0.0 0.00 0.00 0.00 998.2
20260505083242 0 215 0.0 0.0 0.00 0.00 0.00 998.1
20260505082739 0 258 1.7 1.7 0.00 0.00 0.00 998.1
20260505082236 0 246 0.0 0.9 0.00 0.00 0.00 998.0
20260505081732 0 234 0.0 1.7 0.00 0.00 0.00 998.1
20260505081229 0 255 0.0 1.7 0.00 0.00 0.00 998.2
20260505080726 0 348 0.0 2.6 0.00 0.00 0.00 998.1
20260505080221 0 203 0.0 0.9 0.00 0.00 0.00 998.2
20260505075717 0 232 1.7 2.6 0.00 0.00 0.00 998.2
20260505075215 0 250 1.7 1.7 0.00 0.00 0.00 997.9
20260505074712 0 270 0.0 1.7 0.00 0.00 0.00 998.1
20260505074209 0 255 1.7 2.6 0.00 0.00 0.00 998.1
20260505073707 0 292 1.7 2.6 0.00 0.00 0.00 998.1
20260505073205 0 294 0.0 1.7 0.00 0.00 0.00 998.1
20260505072700 0 243 1.7 3.5 0.00 0.00 0.00 998.0
20260505072156 0 270 1.7 3.5 0.00 0.00 0.00 998.0
20260505071652 0 295 1.7 2.6 0.00 0.00 0.00 997.9
20260505071150 0 293 2.6 2.6 0.00 0.00 0.00 998.1
20260505070647 0 243 1.7 3.5 0.00 0.00 0.00 998.1
20260505070143 0 242 3.5 3.5 0.00 0.00 0.00 997.9
20260505065639 0 270 1.7 2.6 0.00 0.00 0.00 998.0
20260505065136 0 180 0.0 0.9 0.00 0.00 0.00 997.8
20260505064633 0 278 0.0 2.6 0.00 0.00 0.00 998.0
20260505064131 0 285 2.6 5.2 0.00 0.00 0.00 997.8
20260505063628 0 276 2.6 4.3 0.00 0.00 0.00 997.7
20260505063124 0 248 1.7 4.3 0.00 0.00 0.00 997.8
20260505062621 0 246 2.6 4.3 0.00 0.00 0.00 997.7
20260505062118 0 244 2.6 4.3 0.00 0.00 0.00 997.9
20260505061615 0 290 2.6 4.3 0.00 0.00 0.00 998.0
20260505061113 0 270 2.6 5.2 0.00 0.00 0.00 998.0
20260505060611 0 241 3.5 5.2 0.00 0.00 0.00 997.9
20260505060107 0 250 5.2 5.2 0.00 0.00 0.00 997.9
20260505055602 0 252 3.5 6.1 0.00 0.00 0.00 997.8
20260505055059 0 283 0.9 6.1 0.00 0.00 0.00 997.7
20260505054556 0 221 1.7 4.3 0.00 0.00 0.00 997.7
20260505054055 0 279 0.0 4.3 0.00 0.00 0.00 997.5
20260505053551 0 243 1.7 3.5 0.00 0.00 0.00 997.7
20260505053048 0 225 0.0 3.5 0.00 0.00 0.00 997.6
20260505052545 0 339 1.7 3.5 0.00 0.00 0.00 997.8
20260505052043 0 270 0.0 0.9 0.00 0.00 0.00 997.5
20260505051539 0 166 1.7 2.6 0.00 0.00 0.00 997.6
20260505051038 0 180 1.7 3.5 0.00 0.00 0.00 997.7
20260505050535 0 180 0.9 4.3 0.00 0.00 0.00 997.5
20260505041503 0 311 0.9 2.6 0.00 0.00 0.00 996.7
20260505041001 0 319 1.7 2.6 0.00 0.00 0.00 996.9
20260505040458 0 279 1.7 3.5 0.00 0.00 0.00 996.7
20260505035954 0 264 2.6 2.6 0.00 0.00 0.00 996.5
20260505035450 0 117 0.9 0.9 0.00 0.00 0.00 996.5
20260505034948 0 253 0.0 3.5 0.00 0.00 0.00 996.4
20260505034444 0 212 1.7 3.5 0.00 0.00 0.00 996.2
20260505033941 0 265 1.7 4.3 0.00 0.00 0.00 996.2
20260505033438 0 252 4.3 5.2 0.00 0.00 0.00 996.0
20260505032936 0 114 0.9 1.7 0.00 0.00 0.00 996.0
20260505032433 0 109 1.7 2.6 0.00 0.00 0.00 996.1
20260505031929 0 198 0.0 1.7 0.00 0.00 0.00 996.0
20260505031427 0 180 0.0 2.6 0.00 0.00 0.00 995.9
20260505030923 0 212 1.7 1.7 0.00 0.00 0.00 995.8
20260505030419 0 174 0.9 1.7 0.00 0.00 0.00 995.6
20260505025915 0 255 1.7 4.3 0.00 0.00 0.00 995.5
20260505025412 0 236 2.6 6.1 0.00 0.00 0.00 995.5
20260505024911 0 262 1.7 4.3 0.00 0.00 0.00 995.4
20260505024408 0 272 4.3 6.1 0.00 0.00 0.00 995.4
20260505023905 0 273 2.6 4.3 0.00 0.00 0.00 995.2
20260505023402 0 228 5.2 7.0 0.00 0.00 0.00 995.2
20260505022859 0 300 0.0 5.2 0.00 0.00 0.00 995.2
20260505022356 0 277 1.7 7.8 0.00 0.00 0.00 995.3
20260505021854 0 259 2.6 6.1 0.00 0.00 0.00 995.1
20260505021350 0 278 4.3 7.8 0.00 0.00 0.00 995.0
20260505020846 0 254 3.5 7.0 0.00 0.00 0.00 994.9
20260505020341 0 282 5.2 6.1 0.00 0.00 0.00 994.9
20260505015839 0 240 4.3 7.8 0.00 0.00 0.00 995.2
20260505015336 0 242 5.2 7.8 0.00 0.00 0.00 995.0
20260505014833 0 250 2.6 7.8 0.00 0.00 0.00 995.1
20260505014330 0 281 7.8 7.8 0.00 0.00 0.00 994.9
20260505013826 0 260 3.5 10.4 0.00 0.00 0.00 995.2
20260505013324 0 249 4.3 7.8 0.00 0.00 0.00 995.3
20260505012822 0 270 3.5 6.1 0.00 0.00 0.00 995.2
20260505012320 0 265 3.5 6.1 0.00 0.00 0.00 995.3
20260505011815 0 245 4.3 11.3 0.00 0.00 0.00 995.3
20260505011312 0 252 3.5 9.6 0.00 0.00 0.00 995.2
20260505010808 0 272 4.3 11.3 0.00 0.00 0.00 995.1
20260505010304 0 291 2.6 9.6 0.00 0.00 0.00 995.3
20260505005801 0 278 4.3 12.2 0.00 0.00 0.00 995.1
20260505005258 0 272 5.2 13.9 0.00 0.00 0.00 995.2
20260505004755 0 244 10.4 13.0 0.00 0.00 0.00 995.1
20260505004251 0 255 7.8 12.2 0.00 0.00 0.00 995.3
20260505003749 0 274 3.5 10.4 0.00 0.00 0.00 995.2
20260505003246 0 263 9.6 10.4 0.00 0.00 0.00 995.1
20260505002742 0 250 9.6 13.0 0.00 0.00 0.00 995.2
20260505002240 0 246 7.8 13.0 0.00 0.00 0.00 995.3
20260505001737 0 256 8.7 13.0 0.00 0.00 0.00 995.3
20260505001235 0 284 7.8 10.4 0.00 0.00 0.00 995.2
20260505000731 0 254 5.2 12.2 0.00 0.00 0.00 995.2
20260505000229 0 266 7.0 10.4 0.00 0.00 0.00 995.3
20260504235725 0 263 5.2 7.8 0.00 0.00 0.00 995.3
20260504235222 0 272 4.3 6.1 0.00 0.00 0.00 995.3
20260504234719 0 283 4.3 9.6 0.00 0.00 0.00 995.3
20260504234216 0 265 1.7 7.0 0.00 0.00 0.00 995.1
20260504233712 0 299 1.7 7.8 0.00 0.00 0.00 995.3
20260504233208 0 324 1.7 6.1 0.00 0.00 0.00 995.4
20260504232706 0 270 0.0 3.5 0.00 0.00 0.00 995.6
20260504232203 0 0 0.0 2.6 0.00 0.00 0.00 995.4
20260504231659 0 284 2.6 7.0 0.00 0.00 0.00 995.4
20260504231155 0 335 2.6 5.2 0.00 0.00 0.00 995.5
20260504230652 0 90 1.7 4.3 0.00 0.00 0.00 995.6
20260504230151 0 86 2.6 4.3 0.00 0.00 0.00 995.6
20260504225649 0 133 2.6 3.5 0.00 0.00 0.00 995.8
20260504225144 0 173 1.7 7.8 0.00 0.00 0.00 995.7
20260504224642 0 202 1.7 5.2 0.00 0.00 0.00 995.9